IZ6EGX-13 Weather Reports


time (UTC)temp
F
wind
direction
speed
knots
gust
knots
rain 1hr
in
rain 24hr
in
rain mn
in
humidity
%
barometer
mb
20260504034627 62 101 0.0 2.6 0.00 0.00 0.00 52 1017.7
20260504033627 63 54 0.0 0.0 0.00 0.00 0.00 52 1017.6
20260504032627 64 302 0.0 0.0 0.00 0.00 0.00 50 1017.6
20260504031627 64 107 0.0 0.0 0.00 0.00 0.00 49 1017.6
20260504030627 65 0 0.0 0.0 0.00 0.00 0.00 48 1017.6
20260504025627 65 38 0.0 0.0 0.00 0.00 0.00 47 1017.6
20260504024627 65 0 0.0 0.0 0.00 0.00 0.00 47 1017.7
20260504023627 65 0 0.0 0.0 0.00 0.00 0.00 48 1017.7
20260504022627 65 0 0.0 0.0 0.00 0.00 0.00 48 1017.7
20260504021627 65 0 0.0 0.0 0.00 0.00 0.00 48 1017.6
20260504020627 65 137 0.0 0.0 0.00 0.00 0.00 49 1017.6
20260504015627 65 300 0.0 0.0 0.00 0.00 0.00 50 1017.6
20260504014627 64 300 0.0 0.0 0.00 0.00 0.00 51 1017.7
20260504013627 64 300 0.0 0.0 0.00 0.00 0.00 51 1017.7
20260504012627 63 300 0.0 0.0 0.00 0.00 0.00 51 1017.6
20260504011627 64 300 0.0 0.0 0.00 0.00 0.00 51 1017.6
20260504010627 64 300 0.0 0.0 0.00 0.00 0.00 50 1017.6
20260504005627 64 252 0.0 0.0 0.00 0.00 0.00 50 1017.6
20260504004627 64 248 0.9 3.5 0.00 0.00 0.00 50 1017.7
20260504003627 63 275 1.7 2.6 0.00 0.00 0.00 51 1017.8
20260504002627 63 268 1.7 4.3 0.00 0.00 0.00 50 1017.8
20260504001627 63 283 0.9 2.6 0.00 0.00 0.00 50 1017.8
20260504000627 64 294 0.0 0.0 0.00 0.00 0.00 49 1017.8
20260503235627 64 241 0.9 1.7 0.00 0.00 0.00 47 1017.8
20260503234627 65 272 2.6 4.3 0.00 0.00 0.00 46 1017.8
20260503233627 64 267 2.6 3.5 0.00 0.00 0.00 47 1017.8
20260503232627 65 265 0.9 3.5 0.00 0.00 0.00 47 1017.8
20260503231627 65 244 0.0 0.0 0.00 0.00 0.00 46 1017.8
20260503230627 64 229 0.0 0.0 0.00 0.00 0.00 45 1017.9
20260503225627 64 267 0.0 0.0 0.00 0.00 0.00 47 1018.0
20260503224627 63 246 0.0 0.0 0.00 0.00 0.00 47 1018.1
20260503223627 63 210 0.0 0.0 0.00 0.00 0.00 46 1018.1
20260503222627 63 235 0.0 0.0 0.00 0.00 0.00 46 1018.1
20260503221627 63 240 0.0 0.0 0.00 0.00 0.00 46 1018.1
20260503220627 63 240 0.0 0.0 0.00 0.00 0.00 47 1018.2
20260503215627 63 241 0.0 0.0 0.00 0.00 0.00 45 1018.1
20260503214627 63 265 0.0 0.0 0.00 0.00 0.00 46 1018.1
20260503213627 63 270 0.0 0.0 0.00 0.00 0.00 47 1018.0
20260503212627 63 270 0.0 0.0 0.00 0.00 0.00 46 1018.0
20260503211627 63 267 0.0 0.0 0.00 0.00 0.00 46 1018.0
20260503210627 64 219 0.0 0.0 0.00 0.00 0.00 44 1018.0
20260503205627 64 210 0.0 0.0 0.00 0.00 0.00 42 1017.9
20260503204627 64 224 0.0 0.0 0.00 0.00 0.00 42 1018.0
20260503203627 63 240 0.0 0.0 0.00 0.00 0.00 44 1018.0
20260503202627 64 246 0.0 0.0 0.00 0.00 0.00 42 1018.0
20260503201627 64 270 0.0 0.0 0.00 0.00 0.00 43 1018.0
20260503200627 64 266 0.0 0.0 0.00 0.00 0.00 45 1018.0
20260503195627 64 257 0.0 0.0 0.00 0.00 0.00 44 1018.1
20260503194627 64 268 0.0 0.0 0.00 0.00 0.00 43 1018.1
20260503193627 64 256 0.0 0.0 0.00 0.00 0.00 45 1018.1
20260503192627 64 270 0.0 0.0 0.00 0.00 0.00 44 1018.0
20260503191627 64 270 0.0 0.0 0.00 0.00 0.00 45 1017.9
20260503190627 64 273 0.0 0.0 0.00 0.00 0.00 44 1017.9
20260503185626 64 227 0.0 0.0 0.00 0.00 0.00 44 1017.9
20260503184627 65 90 0.0 0.0 0.00 0.00 0.00 43 1017.8
20260503183627 65 90 0.0 0.0 0.00 0.00 0.00 42 1017.8
20260503182626 65 90 0.0 0.0 0.00 0.00 0.00 43 1017.7
20260503181627 64 90 0.0 0.0 0.00 0.00 0.00 43 1017.7
20260503180627 65 90 0.0 0.0 0.00 0.00 0.00 43 1017.6
20260503175627 64 90 0.0 0.0 0.00 0.00 0.00 43 1017.6
20260503174626 65 90 0.0 0.0 0.00 0.00 0.00 43 1017.6
20260503173627 65 90 0.0 0.0 0.00 0.00 0.00 45 1017.6
20260503172626 65 90 0.0 0.0 0.00 0.00 0.00 47 1017.6
20260503171626 66 90 0.0 0.0 0.00 0.00 0.00 46 1017.5
20260503170626 67 90 0.0 0.0 0.00 0.00 0.00 45 1017.5
20260503150626 68 92 2.6 5.2 0.00 0.00 0.00 44 1017.6
20260503130626 72 100 3.5 9.6 0.00 0.00 0.00 37 1018.1
20260503110626 71 106 4.3 6.1 0.00 0.00 0.00 36 1019.1
20260503081626 71 164 0.9 3.5 0.00 0.00 0.00 36 1019.9
20260503080626 72 243 0.0 2.6 0.00 0.00 0.00 34 1019.9
20260503072626 70 258 0.0 0.0 0.00 0.00 0.00 40 1020.0
20260503071626 69 266 0.0 0.0 0.00 0.00 0.00 40 1020.1
20260503070626 68 253 0.0 0.0 0.00 0.00 0.00 41 1020.1
20260503054626 63 300 0.9 2.6 0.00 0.00 0.00 39 1020.1
20260503053626 63 294 1.7 2.6 0.00 0.00 0.00 40 1020.2
20260503052625 62 296 2.6 3.5 0.00 0.00 0.00 41 1020.2
20260503051626 62 297 3.5 5.2 0.00 0.00 0.00 42 1020.2
20260503050626 61 291 4.3 5.2 0.00 0.00 0.00 43 1020.1
20260503045625 61 299 3.5 5.2 0.00 0.00 0.00 45 1020.2
20260503044625 61 291 0.0 0.0 0.00 0.00 0.00 46 1020.2
20260503043625 60 292 0.0 0.0 0.00 0.00 0.00 47 1020.3
20260503042626 60 276 0.0 0.0 0.00 0.00 0.00 49 1020.3
20260503041625 59 285 0.0 0.0 0.00 0.00 0.00 51 1020.3
20260503040626 59 292 0.0 0.0 0.00 0.00 0.00 51 1020.3
20260503035626 59 279 0.0 0.0 0.00 0.00 0.00 50 1020.2